Weather Roundup
Issued by NWS Chicago, IL

Home | Current Version | Previous Version | Text Only | Print | Product List | Glossary On
Versions: 1 2 3 4 5 6 7 8 9 10 11 12 13 14 15 16 17 18 19 20 21 22 23 24 25 26 27 28 29 30 31 32 33 34 35 36 37 38 39 40 41 42 43 44 45 46 47 48 49 50
000
NZUS59 KLOT 251158
HRRLOT

CHICAGO AREA WEATHER ROUNDUP
NATIONAL WEATHER SERVICE CHICAGO/ROMEOVILLE IL
700 AM CDT SAT OCT 25 2014

NOTE: "FAIR" INDICATES FEW OR NO CLOUDS BELOW 12,000 FEET WITH NO
SIGNIFICANT WEATHER AND/OR OBSTRUCTIONS TO VISIBILITY.

* THESE STATIONS ARE NOT UNDER NWS QUALITY CONTROL. THEY ALSO MAY NOT
  REPORT WEATHER SUCH AS PRECIPITATION OR FOG.

ILZ005-006-012>014-019>023-251300-
NORTHEAST ILLINOIS

CITY           SKY/WX    TMP DP  RH WIND       PRES   REMARKS
OHARE          PTCLDY    54  52  93 W7        29.90F FOG
6HR MIN TEMP:  54; 6HR MAX TEMP:  59;

MIDWAY         NOT AVBL
AURORA         PTCLDY    53  50  89 W5        29.93S FOG
6HR MIN TEMP:  49; 6HR MAX TEMP:  59;

WAUKEGAN       NOT AVBL
DUPAGE AIRPORT MOCLDY    56  53  90 W6        29.92S FOG
6HR MIN TEMP:  52; 6HR MAX TEMP:  58;

WHEELING       CLEAR     57  53  86 W3        29.92S
6HR MIN TEMP:  57; 6HR MAX TEMP:  61;

NORTHERLY IS     N/A     57  53  86 W7          N/A
$$

WIZ051-052-058>065-066-070>072-251300-
SOUTHEAST WISCONSIN

CITY           SKY/WX    TMP DP  RH WIND       PRES   REMARKS
MILWAUKEE      PTCLDY    56  52  86 W9        29.88S
6HR MIN TEMP:  55; 6HR MAX TEMP:  57;

WAUKESHA       CLEAR     54  52  94 W9        29.89S FOG
$$

INZ001>003-010>013-019-020-251300-
NORTHWEST INDIANA

CITY           SKY/WX    TMP DP  RH WIND       PRES   REMARKS
GARY*          CLOUDY    57  55  94 W14       29.92S FOG
MICHIGAN CITY* NOT AVBL
RENSSELAER*    NOT AVBL
VALPARAISO     PTCLDY    52  50  93 SW7       29.92S FOG
$$

LMZ740>746-251300-
SOUTHERN LAKE MICHIGAN

STATION/POSITION TIME  SKY/WX   TEMP WIND        PRES    VSBY
                                AIR  DIR/SP/G
                 (UTC)          (F)  (DEG/KT/KT) (MB)    (MI)
HARRISON CRIB    1100            58  280/ 10/ 13   N/A
BURNHAM HARBOR   1100            57  260/  6/ 14   N/A
CALUMET HARBOR   1100            56  250/  5/ 12 1011.5F
BURNS HARBOR     NOT AVBL
MICHIGAN CITY    1100            56  210/ 11/ 12   N/A
$$

ABBREVIATIONS USED IN REMARKS
   TC - TEMPERATURE IN CELSIUS
  WCI - WIND CHILL INDEX
   HX - HEAT INDEX
  VSB - VISIBILITY
$$



USA.gov is the U.S. government's official web portal to all federal, state and local government web resources and services.